Tracking 29892 objects as of 21-Nov-2024
HD Live streaming from Space Station
objects crossing your sky now

SL-6 R/B(2)

Track SL-6 R/B(2) now!


NORAD ID: 13075
Int'l Code: 1982-015D
Perigee: 1,732.0 km
Apogee: 39,083.3 km
Inclination: 62.9 °
Period: 726.8 minutes
Semi major axis: 26778 km
RCS: 7.357 m2 (large)
Launch date: February 26, 1982
Source: Commonwealth of Independent States (former USSR) (CIS)
Launch site: PLESETSK MISSILE AND SPACE COMPLEX (PKMTR)

Note: This is a ROCKET BODY
Your satellite tracking list
Your tracking list is empty




NASA's NSSDC Master Catalog

Two Line Element Set (TLE):
1 13075U 82015D   24324.83291082  .00000301  00000-0  00000-0 0  9994
2 13075  62.9402 173.4726 6974095 278.3727  14.4018  1.98116189307784
Source of the keplerian elements: AFSPC